Location: Koslow
(50.3020°N, 18.5663°E)
Time: 01:45:26
(UTC+00:00)

STARLINK-1357 - Pass Details

Date: 20 June 2021
Orbit: 546 x 548 km, 53.1° (Epoch: 03 August)

Event Time Altitude Azimuth Distance (km) Brightness Sun altitude
Exits shadow 23:41:19 - 130° (SE) 2,136 6.4 -15.3°
Enters shadow 00:41:50 -68° 239° (WSW) 12,428 10.4 -12.0°
Maximum altitude 01:20:12 33° 142° (SE) 939 4.7 -8.9°
